Location: Mentone
(34.5413°N, 85.5351°W)
Time: 03:49:46
(UTC-05:00)

Vanguard 3 - All Passes

Search period start: 27 August 2014 00:00
Search period end: 06 September 2014 00:00
Orbit: 508 x 3279 km, 33.3° (Epoch: 24 August)

Date Brightness Start Highest point End Pass type
(mag) Time Alt. Az. Time Alt. Az. Time Alt. Az.
27 Aug - 14:12:36 10° SSW 14:28:59 33° SE 14:42:36 10° E daylight
27 Aug - 16:25:49 10° SW 16:44:45 62° SSE 16:57:09 10° E daylight
27 Aug - 18:43:26 10° W 19:00:05 84° S 19:09:20 10° E daylight
27 Aug - 21:01:52 10° W 21:13:56 72° SSW 21:20:27 10° ESE visible
27 Aug - 23:19:17 10° W 23:25:23 24° SW 23:29:33 10° SSE visible
28 Aug - 13:01:44 10° S 13:14:56 22° SE 13:27:16 10° E daylight
28 Aug - 15:11:43 10° SW 15:30:29 51° SSE 15:44:34 10° E daylight
28 Aug - 17:27:44 10° WSW 17:46:23 78° SSE 17:57:38 10° E daylight
28 Aug - 19:46:22 10° W 20:01:18 83° S 20:09:21 10° E visible
28 Aug - 22:04:21 10° W 22:14:04 46° SSW 22:19:41 10° SE visible
29 Aug - 11:55:00 10° SSE 12:01:10 12° SE 12:07:21 10° ESE daylight
29 Aug - 13:58:50 10° SSW 14:16:10 39° SE 14:31:04 10° E daylight
29 Aug - 16:12:36 10° WSW 16:32:13 68° SSE 16:45:31 10° E daylight
29 Aug - 18:30:31 10° W 18:47:59 85° S 18:57:54 10° E daylight
29 Aug - 20:49:09 10° W 21:02:04 68° SSW 21:09:04 10° ESE visible
29 Aug - 23:07:18 10° W 23:13:23 21° SW 23:17:40 10° S visible
30 Aug - 12:47:30 10° S 13:02:03 27° SE 13:16:06 10° E daylight
30 Aug - 14:58:24 10° SW 15:17:43 57° SSE 15:32:49 10° E daylight
30 Aug - 17:14:45 10° WSW 17:34:03 82° S 17:46:04 10° E daylight
30 Aug - 19:33:31 10° W 19:49:19 81° S 19:57:57 10° ESE visible
30 Aug - 21:51:50 10° W 22:02:06 41° SW 22:08:06 10° SE visible
31 Aug - 11:38:50 10° SSE 11:48:21 16° SE 11:58:09 10° ESE daylight
31 Aug - 13:45:23 10° SSW 14:03:14 44° SE 14:19:17 10° E daylight
31 Aug - 15:59:33 10° WSW 16:19:36 74° SSE 16:33:48 10° E daylight
31 Aug - 18:17:36 10° W 18:35:49 86° S 18:46:25 10° E daylight
31 Aug - 20:36:23 10° W 20:50:05 63° SSW 20:57:36 10° SE visible
31 Aug - 22:55:22 10° W 23:01:17 19° SW 23:05:35 10° S visible
01 Sep - 12:33:46 10° SSW 12:49:03 32° SE 13:04:30 10° E daylight
01 Sep - 14:45:19 10° SW 15:04:53 63° SSE 15:20:57 10° E daylight
01 Sep - 17:01:50 10° WSW 17:21:38 84° S 17:34:27 10° E daylight
01 Sep - 19:20:37 10° W 19:37:14 78° SSW 19:46:30 10° ESE visible
01 Sep - 21:39:18 10° W 21:50:00 37° SW 21:56:25 10° SSE visible
02 Sep - 11:24:12 10° S 11:35:24 20° SE 11:47:28 10° E daylight
02 Sep - 13:32:13 10° SW 13:50:14 50° SSE 14:07:20 10° E daylight
02 Sep - 15:46:39 10° WSW 16:06:56 78° SSE 16:22:00 10° E daylight
02 Sep - 18:04:42 10° W 18:23:34 85° S 18:34:53 10° E daylight
02 Sep - 20:23:33 10° W 20:37:58 58° SSW 20:46:03 10° SE visible
02 Sep - 22:43:33 10° W 22:49:03 16° SW 22:53:15 10° SSW visible
03 Sep - 12:20:25 10° SSW 12:35:59 37° SE 12:52:36 10° E daylight
03 Sep - 14:32:25 10° SW 14:52:00 68° SSE 15:08:58 10° E daylight
03 Sep - 16:49:00 10° W 17:09:10 86° S 17:22:46 10° E daylight
03 Sep - 19:07:42 10° W 19:25:02 74° SSW 19:34:58 10° ESE visible
03 Sep - 21:26:44 10° W 21:37:45 33° SW 21:44:35 10° SSE visible
04 Sep - 11:10:18 10° S 11:22:23 24° SE 11:36:05 10° E daylight
04 Sep - 13:19:17 10° SW 13:37:11 55° SSE 13:55:12 10° ENE daylight
04 Sep - 15:33:54 10° WSW 15:54:14 81° SSE 16:10:07 10° E daylight
04 Sep - 17:51:50 10° W 18:11:13 84° S 18:23:17 10° ESE daylight
04 Sep - 20:10:42 10° WNW 20:25:42 53° SSW 20:34:23 10° SE visible
04 Sep - 22:32:00 10° W 22:36:44 14° SW 22:40:32 10° SSW visible
05 Sep - 10:04:23 10° SE 10:09:25 12° SE 10:14:49 10° ESE daylight
05 Sep - 12:07:22 10° SSW 12:22:54 42° SE 12:40:27 10° E daylight
05 Sep - 14:19:43 10° WSW 14:39:05 73° SSE 14:56:53 10° E daylight
05 Sep - 16:36:14 10° W 16:56:38 87° S 17:11:02 10° E daylight
05 Sep - 18:54:46 10° W 19:12:43 70° SSW 19:23:21 10° ESE daylight
05 Sep - 21:14:12 10° W 21:25:23 30° SW 21:32:36 10° SSE visible
